This demonstration page uses our WeatherBlox Daily Observations layout. Learn more.

Left ArrowRight Arrow

38.20091, -84.87328

Hourly Observations for February 18, 2018

Temp ( °F °C ) Dew Point ( °F °C ) Humidity (%) Winds ( mph kmh ) Pressure ( in mb ) Visibility ( mi km ) Precip ( " mm )
12:53 am 00:53 Partly Cloudy 38 3.3 32 0 79 79 W 5 7 30.23 1024 10 16 0.00 0.00
1:07 am 01:07 Mostly Cloudy 38 3.3 32 0 79 79 W 5 7 30.24 1024 10 16 0.00 0.00
1:42 am 01:42 Partly Cloudy 37 2.8 31 -0.6 79 79 VRB 5 7 30.27 1025 10 16 0.00 0.00
1:53 am 01:53 Mostly Cloudy 36 2.2 31 -0.6 82 82 W 6 9 30.25 1024 10 16 0.00 0.00
2:00 am 02:00 Partly Cloudy 36 2.2 30 -1.1 79 79 W 6 9 30.30 1026 10 16 0.00 0.00
2:32 am 02:32 Mostly Cloudy 36 2.2 29 -1.7 76 76 W 7 11 30.30 1026 10 16 0.00 0.00
2:53 am 02:53 Mostly Cloudy 35 1.7 29 -1.7 78 78 WSW 5 7 30.26 1025 10 16 0.00 0.00
3:04 am 03:04 Partly Cloudy 34 1.1 29 -1.7 82 82 W 3 6 30.30 1026 10 16 0.00 0.00
3:53 am 03:53 Partly Cloudy 33 0.6 28 -2.2 82 82 Calm 30.29 1026 10 16 0.00 0.00
4:53 am 04:53 Clear 31 -0.6 26 -3.3 82 82 W 3 6 30.31 1027 10 16 0.00 0.00
5:53 am 05:53 Clear 30 -1.1 25 -3.9 82 82 WSW 3 6 30.34 1027 9 14 0.00 0.00
6:53 am 06:53 Clear with Mist and Fog 28 -2.2 24 -4.4 85 85 Calm 30.36 1028 4 6 0.00 0.00
7:02 am 07:02 Clear with Mist and Fog 28 -2.2 24 -4.4 85 85 Calm 30.39 1029 2 3 0.00 0.00
7:13 am 07:13 Clear with Mist and Fog 28 -2.2 24 -4.4 85 85 Calm 30.39 1029 3 5 0.00 0.00
7:53 am 07:53 Sunny with Mist and Fog 27 -2.8 24 -4.4 89 89 Calm 30.37 1028 4 6 0.00 0.00
8:15 am 08:15 Sunny with Mist and Fog 29 -1.7 27 -2.8 92 92 Calm 30.42 1030 3 4 0.00 0.00
8:25 am 08:25 Sunny with Mist and Fog 31 -0.6 27 -2.8 85 85 Calm 30.42 1030 3 5 0.00 0.00
8:53 am 08:53 Sunny with Mist and Fog 34 1.1 30 -1.1 85 85 Calm 30.37 1028 6 10 0.00 0.00
9:53 am 09:53 Sunny 37 2.8 31 -0.6 79 79 E 5 7 30.37 1028 10 16 0.00 0.00
10:53 am 10:53 Sunny 41 5 32 0 70 70 E 5 7 30.36 1028 10 16 0.00 0.00
11:53 am 11:53 Sunny 44 6.7 33 0.6 65 65 VRB 7 11 30.35 1028 10 16 0.00 0.00
12:53 pm 12:53 Sunny 48 8.9 32 0 54 54 E 7 11 30.31 1026 10 16 0.00 0.00
1:53 pm 13:53 Sunny 50 10 32 0 50 50 SE 12 19 30.27 1025 10 16 0.00 0.00
2:53 pm 14:53 Sunny 51 10.6 30 -1.1 44 44 SE 10 17 30.24 1024 10 16 0.00 0.00
3:53 pm 15:53 Sunny 51 10.6 30 -1.1 44 44 SE 8 13 30.23 1024 10 16 0.00 0.00
4:53 pm 16:53 Sunny 52 11.1 31 -0.6 45 45 SE 9 15 30.20 1023 10 16 0.00 0.00
5:53 pm 17:53 Sunny 49 9.4 30 -1.1 48 48 SE 7 11 30.19 1022 10 16 0.00 0.00
6:53 pm 18:53 Clear 47 8.3 31 -0.6 54 54 SE 5 7 30.18 1022 10 16 0.00 0.00
7:53 pm 19:53 Clear 46 7.8 31 -0.6 56 56 SE 6 9 30.17 1022 10 16 0.00 0.00
8:53 pm 20:53 Clear 45 7.2 30 -1.1 56 56 ESE 6 9 30.15 1021 10 16 0.00 0.00
9:53 pm 21:53 Clear 45 7.2 31 -0.6 58 58 E 6 9 30.12 1020 10 16 0.00 0.00
10:53 pm 22:53 Cloudy 47 8.3 32 0 56 56 ESE 5 7 30.11 1020 10 16 0.00 0.00
11:53 pm 23:53 Cloudy 47 8.3 33 0.6 59 59 SE 6 9 30.11 1020 10 16 0.00 0.00

Powered by AerisWeather